"Pseudo-MPEC" for P22jrup

Created 2026 Jan 18 9:35:19 UT using Find_Orb

Click here for an explanation of pseudo-MPECs

 
 Astrometry: 
     P22jrup* C2025 12 25.43599707 22 29.175+42 24 30.42   ~CPG5 21.99wXNEOCPF52
     P22jrup  C2025 12 25.44779407 22 27.924+42 24 28.32   ~CPG5 22.08wXNEOCPF52
     P22jrup  C2025 12 25.45968307 22 26.678+42 24 26.07   ~CPG5 21.92wXNEOCPF52
     P22jrup 1C2025 12 28.47095207 17 14.783+42 13 03.42   ~CT15 22.00GVNEOCPT12
     P22jrup 1C2025 12 28.47367207 17 14.494+42 13 02.76   ~CT15 22.38GVNEOCPT12
     P22jrup 1C2025 12 28.47613207 17 14.222+42 13 02.09   ~CT15 22.09GVNEOCPT12

Station data:
(F52) Pan-STARRS 2, Haleakala  (N20.707382 W156.255910)  US/Hawaii.
   Observers J. Herman, T. Lowe, P. Minguez, A. Schultz, I. Smith. Measurers
   K. Chambers, T. de Boer, J. Fairlamb, H. Gao, M. Huber, C.-C. Lin, E.
   Magnier, Y. Ramanjooloo, R. Wainscoat, R. Weryk. 1.8-m Ritchey-Chrétien +
   CCD.
(T12) Mauna Kea-UH/Tholen NEO Follow-Up (2.24-m)  (N19.822991 W155.469434)
   US/Hawaii.  Observer R. Weryk. 2.24-m f/10.1 University of Hawaii
   reflector.

Orbital elements:  P22jrup
   Perihelion 2026 Nov 28.572753 +/- 350 TT = 13:44:45.9 (JD 2461373.072753)
Epoch 2025 Dec 28.0 TT = JDT 2461037.5   Earth MOID: 0.7556      AutoNEOCP
M 250.618652005 +/- 100             (J2000 ecliptic)
n   0.325954198 +/- 0.088           Peri.  281.618870 +/- 70
a   2.091052785 +/- 0.376           Node   308.632353 +/- 14
e   0.22535351 +/- 0.169            Incl.   24.227786 +/- 17
P   3.02376                H 18.97  G  0.15   U 11.2  SR
q 1.619826681 +/- 0.359    Q 2.562278888 +/- 1.11
From 6 observations 2025 Dec. 25-28; mean residual 0".06
Residuals in arcseconds: 
251225 F52  .13+  .11-    251225 F52  .07-  .07+    251228 T12  .04+  .03+    
251225 F52  .06-  .04+    251228 T12  .04-  .02-    251228 T12  .00   .01-    

Ephemerides (geocentric):
Date (UTC) HH   RA             Dec           delta  r     elong  mag " sig PA
---- --------  ------------   ------------  ------ ------ -----  --- --------
2026 01 18 10  06 40 06.777   +39 26 08.54  1.3564 2.2841 154.5 22.1 2497 124
2026 01 18 11  06 40 02.766   +39 25 40.17  1.3565 2.2840 154.5 22.1 2505 124
2026 01 18 12  06 39 58.759   +39 25 11.78  1.3565 2.2839 154.4 22.1 2514 124
2026 01 18 13  06 39 54.755   +39 24 43.36  1.3566 2.2838 154.4 22.1 2523 124
2026 01 18 14  06 39 50.754   +39 24 14.91  1.3567 2.2837 154.4 22.1 2531 124
2026 01 18 15  06 39 46.757   +39 23 46.44  1.3567 2.2836 154.3 22.1 2540 124
2026 01 18 16  06 39 42.763   +39 23 17.94  1.3568 2.2835 154.3 22.1 2549 125
2026 01 18 17  06 39 38.772   +39 22 49.41  1.3569 2.2834 154.2 22.1 2557 125
2026 01 18 18  06 39 34.785   +39 22 20.85  1.3569 2.2833 154.2 22.1 2566 125
2026 01 18 19  06 39 30.801   +39 21 52.27  1.3570 2.2832 154.2 22.1 2575 125
2026 01 18 20  06 39 26.821   +39 21 23.66  1.3571 2.2831 154.1 22.1 2583 125
2026 01 18 21  06 39 22.844   +39 20 55.02  1.3571 2.2831 154.1 22.1 2592 125
2026 01 18 22  06 39 18.871   +39 20 26.36  1.3572 2.2830 154.1 22.1 2601 125
2026 01 18 23  06 39 14.901   +39 19 57.67  1.3573 2.2829 154.0 22.1 2610 125
2026 01 19 00  06 39 10.935   +39 19 28.95  1.3574 2.2828 154.0 22.1 2618 125
2026 01 19 01  06 39 06.972   +39 19 00.21  1.3574 2.2827 153.9 22.1 2627 125
2026 01 19 02  06 39 03.012   +39 18 31.44  1.3575 2.2826 153.9 22.1 2636 125
2026 01 19 03  06 38 59.056   +39 18 02.64  1.3576 2.2825 153.9 22.1 2645 125
2026 01 19 04  06 38 55.104   +39 17 33.82  1.3576 2.2824 153.8 22.1 2654 125
2026 01 19 05  06 38 51.155   +39 17 04.97  1.3577 2.2823 153.8 22.1 2662 125
2026 01 19 06  06 38 47.209   +39 16 36.10  1.3578 2.2822 153.8 22.1 2671 125
2026 01 19 07  06 38 43.267   +39 16 07.20  1.3579 2.2821 153.7 22.1 2680 125
2026 01 19 08  06 38 39.329   +39 15 38.27  1.3579 2.2820 153.7 22.1 2689 125
2026 01 19 09  06 38 35.394   +39 15 09.32  1.3580 2.2819 153.6 22.1 2698 125
2026 01 19 10  06 38 31.463   +39 14 40.34  1.3581 2.2818 153.6 22.1 2707 125
2026 01 19 11  06 38 27.535   +39 14 11.33  1.3582 2.2817 153.6 22.1 2715 125
2026 01 19 12  06 38 23.611   +39 13 42.30  1.3583 2.2817 153.5 22.1 2724 125
2026 01 19 13  06 38 19.690   +39 13 13.24  1.3583 2.2816 153.5 22.1 2733 125
2026 01 19 14  06 38 15.773   +39 12 44.16  1.3584 2.2815 153.5 22.1 2742 125
2026 01 19 15  06 38 11.859   +39 12 15.05  1.3585 2.2814 153.4 22.1 2751 125
2026 01 19 16  06 38 07.950   +39 11 45.92  1.3586 2.2813 153.4 22.1 2760 125
2026 01 19 17  06 38 04.043   +39 11 16.76  1.3587 2.2812 153.3 22.1 2769 125
2026 01 19 18  06 38 00.141   +39 10 47.57  1.3587 2.2811 153.3 22.1 2778 125
2026 01 19 19  06 37 56.241   +39 10 18.36  1.3588 2.2810 153.3 22.1 2787 125
2026 01 19 20  06 37 52.346   +39 09 49.12  1.3589 2.2809 153.2 22.1 2796 125
2026 01 19 21  06 37 48.454   +39 09 19.86  1.3590 2.2808 153.2 22.1 2805 125
2026 01 19 22  06 37 44.566   +39 08 50.57  1.3591 2.2807 153.1 22.1 2814 125
2026 01 19 23  06 37 40.681   +39 08 21.26  1.3591 2.2806 153.1 22.1 2823 125
2026 01 20 00  06 37 36.801   +39 07 51.92  1.3592 2.2805 153.1 22.1 2832 125
2026 01 20 01  06 37 32.923   +39 07 22.56  1.3593 2.2804 153.0 22.1 2841 125
2026 01 20 02  06 37 29.050   +39 06 53.17  1.3594 2.2803 153.0 22.1 2850 125
2026 01 20 03  06 37 25.180   +39 06 23.76  1.3595 2.2802 153.0 22.1 2859 125
2026 01 20 04  06 37 21.314   +39 05 54.32  1.3596 2.2802 152.9 22.1 2868 125
2026 01 20 05  06 37 17.451   +39 05 24.85  1.3596 2.2801 152.9 22.1 2877 125
2026 01 20 06  06 37 13.592   +39 04 55.36  1.3597 2.2800 152.8 22.1 2886 125
2026 01 20 07  06 37 09.737   +39 04 25.85  1.3598 2.2799 152.8 22.1 2895 125
2026 01 20 08  06 37 05.886   +39 03 56.31  1.3599 2.2798 152.8 22.1 2904 125
2026 01 20 09  06 37 02.038   +39 03 26.75  1.3600 2.2797 152.7 22.1 2913 125